This demonstration page uses our WeatherBlox Daily Observations layout. Learn more.

Left ArrowRight Arrow

Hourly Observations for July 3, 2022

Temp ( °F °C ) Dew Point ( °F °C ) Humidity (%) Winds ( mph kmh ) Pressure ( in mb ) Visibility ( mi km ) Precip ( " mm )
12:59 am 00:59 Mostly Clear 78 25.6 74 23.3 87 87 SSW 7 11 30.01 1016 10 16 0.00 0.00
1:59 am 01:59 Mostly Clear 77 25 72 22.2 85 85 SSW 9 15 30.00 1016 10 16 0.00 0.00
2:59 am 02:59 Mostly Clear 77 25 71 21.7 82 82 S 6 9 30.00 1016 10 16 0.00 0.00
3:59 am 03:59 Mostly Clear 76 24.4 71 21.7 85 85 SSE 6 9 29.98 1015 9 14 0.00 0.00
4:59 am 04:59 Partly Cloudy 76 24.4 71 21.7 85 85 Calm 30.00 1016 10 16 0.00 0.00
5:59 am 05:59 Mostly Cloudy 76 24.4 71 21.7 85 85 SSE 3 6 30.01 1016 10 16 0.00 0.00
6:59 am 06:59 Mostly Cloudy 77 25 73 22.8 88 88 WSW 5 7 30.02 1017 10 16 0.00 0.00
7:59 am 07:59 Mostly Cloudy 79 26.1 73 22.8 82 82 SW 5 7 30.02 1017 10 16 0.00 0.00
8:59 am 08:59 Mostly Cloudy 81 27.2 72 22.2 74 74 VRB 3 6 30.02 1017 10 16 0.00 0.00
9:59 am 09:59 Mostly Cloudy 81 27.2 72 22.2 74 74 VRB 3 6 30.01 1016 10 16 0.00 0.00
10:59 am 10:59 Mostly Cloudy 82 27.8 71 21.7 69 69 N 7 11 30.03 1017 10 16 0.00 0.00
11:59 am 11:59 Mostly Cloudy 82 27.8 73 22.8 74 74 NNE 7 11 30.03 1017 10 16 0.00 0.00
12:59 pm 12:59 Mostly Cloudy 84 28.9 74 23.3 72 72 NE 9 15 30.03 1017 10 16 0.00 0.00
1:59 pm 13:59 Mostly Cloudy 84 28.9 74 23.3 72 72 NE 9 15 30.01 1016 10 16 0.00 0.00
2:59 pm 14:59 Mostly Cloudy with Thunderstorms 84 28.9 74 23.3 72 72 NE 14 22 30.02 1017 10 16 0.00 0.00
3:25 pm 15:25 Cloudy with Thunderstorms 84 28.9 74 23.3 72 72 N 15 24 30.03 1017 2 3 0.03 0.76
3:29 pm 15:29 Cloudy with Thunderstorms 84 28.9 74 23.3 72 72 N 10 17 30.03 1017 1 2 0.10 2.54
3:34 pm 15:34 Cloudy with Thunderstorms 84 28.9 74 23.3 72 72 N 9 15 30.04 1017 1 1 0.14 3.56
3:37 pm 15:37 Cloudy with Thunderstorms 82 27.8 74 23.3 77 77 N 7 11 30.04 1017 2 2 0.16 4.06
3:48 pm 15:48 Cloudy with Thunderstorms 77 25 74 23.3 90 90 NNE 9 15 30.02 1017 4 6 0.17 4.32
3:59 pm 15:59 Cloudy with Nearby Thunderstorms 77 25 74 23.3 90 90 NE 8 13 30.01 1016 6 10 0.17 4.32
4:19 pm 16:19 Mostly Cloudy 77 25 75 23.9 94 94 NE 8 13 30.01 1016 8 13 0.00 0.00
4:59 pm 16:59 Mostly Cloudy 81 27.2 75 23.9 82 82 NE 6 9 30.02 1017 10 16 0.00 0.00
5:59 pm 17:59 Mostly Cloudy 82 27.8 74 23.3 77 77 NNE 10 17 30.01 1016 8 13 0.00 0.00
6:59 pm 18:59 Partly Cloudy 81 27.2 73 22.8 77 77 NE 10 17 30.03 1017 9 14 0.00 0.00
7:59 pm 19:59 Partly Cloudy 81 27.2 72 22.2 74 74 NNE 8 13 30.04 1017 9 14 0.00 0.00
8:59 pm 20:59 Partly Cloudy 80 26.7 73 22.8 79 79 NNE 6 9 30.05 1018 9 14 0.00 0.00
9:59 pm 21:59 Mostly Clear 79 26.1 72 22.2 79 79 ENE 5 7 30.09 1019 9 14 0.00 0.00
10:59 pm 22:59 Mostly Clear 78 25.6 71 21.7 79 79 NNE 7 11 30.10 1019 10 16 0.00 0.00
11:59 pm 23:59 Clear 76 24.4 73 22.8 91 91 NE 3 6 30.10 1019 9 14 0.00 0.00

Powered by AerisWeather